JS2WAD-13 Weather Reports


Display with metric or nautical units.
time (UTC)temp
F
wind
direction
speed
MPH
gust
MPH
rain 1hr
in
rain 24hr
in
rain mn
in
humidity
%
barometer
mb
20190119103435 42 276 0.0 0.0 0.00 0.00 0.00 73 927.9
20190119102935 42 276 0.0 0.0 0.00 0.00 0.00 73 928.0
20190119102434 42 276 0.0 0.0 0.00 0.00 0.00 72 928.2
20190119101934 42 276 0.0 0.0 0.00 0.00 0.00 72 928.2
20190119101434 43 276 0.0 0.0 0.00 0.00 0.00 71 928.2
20190119100934 43 276 0.0 0.0 0.00 0.00 0.00 71 928.1
20190119100433 43 276 0.0 0.0 0.00 0.00 0.00 70 928.1
20190119095933 44 276 0.0 0.0 0.00 0.00 0.00 68 928.2
20190119095433 44 276 0.0 0.0 0.00 0.00 0.00 67 928.2
20190119094932 45 276 0.0 0.0 0.00 0.00 0.00 66 928.2
20190119094432 45 276 0.0 0.0 0.00 0.00 0.00 66 928.2
20190119093932 45 276 0.0 0.0 0.00 0.00 0.00 65 928.2
20190119093432 45 276 0.0 0.0 0.00 0.00 0.00 64 928.1
20190119092931 45 276 0.0 0.0 0.00 0.00 0.00 64 928.1
20190119092431 45 276 0.0 0.0 0.00 0.00 0.00 64 928.1
20190119091931 45 276 0.0 0.0 0.00 0.00 0.00 64 928.1
20190119091430 45 276 0.0 0.0 0.00 0.00 0.00 64 928.1
20190119090930 46 276 0.0 0.0 0.00 0.00 0.00 63 928.1
20190119090430 46 268 0.0 0.0 0.00 0.00 0.00 62 928.1
20190119085929 46 269 0.0 0.0 0.00 0.00 0.00 61 928.2
20190119085429 47 269 0.0 0.0 0.00 0.00 0.00 61 928.2
20190119084929 47 269 0.0 0.0 0.00 0.00 0.00 59 928.3
20190119084429 48 269 0.0 0.0 0.00 0.00 0.00 58 928.3
20190119083928 49 269 0.0 0.0 0.00 0.00 0.00 55 928.3
20190119083428 51 269 0.0 0.0 0.00 0.00 0.00 53 928.4
20190119082928 51 269 0.0 0.0 0.00 0.00 0.00 53 928.3
20190119082427 51 268 0.0 0.0 0.00 0.00 0.00 52 928.4
20190119081927 52 269 0.0 0.0 0.00 0.00 0.00 51 928.3
20190119081427 52 269 0.0 0.0 0.00 0.00 0.00 51 928.3
20190119080927 53 268 0.0 0.0 0.00 0.00 0.00 50 928.3
20190119080426 53 268 0.0 0.0 0.00 0.00 0.00 49 928.3
20190119075926 54 268 0.0 0.0 0.00 0.00 0.00 48 928.2
20190119075426 55 268 0.0 0.0 0.00 0.00 0.00 47 928.2
20190119074925 56 269 0.0 1.0 0.00 0.00 0.00 46 928.3
20190119074425 56 268 0.0 0.0 0.00 0.00 0.00 45 928.4
20190119073925 57 268 0.0 1.0 0.00 0.00 0.00 44 928.3
20190119073425 58 268 0.0 0.0 0.00 0.00 0.00 43 928.3
20190119072924 58 268 0.0 0.0 0.00 0.00 0.00 43 928.3
20190119072424 59 269 0.0 0.0 0.00 0.00 0.00 42 928.3
20190119071924 59 269 0.0 0.0 0.00 0.00 0.00 42 928.3
20190119071423 59 268 0.0 1.0 0.00 0.00 0.00 42 928.3
20190119070923 60 269 0.0 0.0 0.00 0.00 0.00 41 928.5
20190119070423 60 268 0.0 0.0 0.00 0.00 0.00 41 928.4
20190119065923 59 268 0.0 1.0 0.00 0.00 0.00 42 928.5
20190119065423 59 268 0.0 1.0 0.00 0.00 0.00 42 928.5
20190119064922 58 268 0.0 0.0 0.00 0.00 0.00 43 928.6
20190119064422 58 269 0.0 1.0 0.00 0.00 0.00 44 928.6
20190119063921 57 268 0.0 1.0 0.00 0.00 0.00 44 928.7
20190119063421 57 268 0.0 2.0 0.00 0.00 0.00 44 928.8
20190119062921 57 260 0.0 1.0 0.00 0.00 0.00 45 928.8
20190119062421 57 260 0.0 1.0 0.00 0.00 0.00 45 928.7
20190119061920 58 260 0.0 0.0 0.00 0.00 0.00 45 928.7
20190119061420 58 260 0.0 0.0 0.00 0.00 0.00 44 928.8
20190119060920 59 260 0.0 3.0 0.00 0.00 0.00 43 928.8
20190119060419 60 260 0.0 2.0 0.00 0.00 0.00 42 928.8
20190119055919 59 260 0.0 1.0 0.00 0.00 0.00 43 928.8
20190119055419 59 260 0.0 0.0 0.00 0.00 0.00 44 928.8
20190119054918 59 260 0.0 1.0 0.00 0.00 0.00 43 928.8
20190119054418 59 260 0.0 0.0 0.00 0.00 0.00 43 928.8
20190119053918 59 260 0.0 0.0 0.00 0.00 0.00 43 928.8
20190119053418 60 260 0.0 0.0 0.00 0.00 0.00 41 928.7
20190119052917 61 260 0.0 0.0 0.00 0.00 0.00 41 928.7
20190119052417 62 260 0.0 0.0 0.00 0.00 0.00 40 928.7
20190119051917 62 260 0.0 1.0 0.00 0.00 0.00 40 928.7
20190119051416 61 260 0.0 2.0 0.00 0.00 0.00 41 928.8
20190119050916 61 260 0.0 0.0 0.00 0.00 0.00 40 928.8
20190119050416 61 260 0.0 1.0 0.00 0.00 0.00 41 928.9
20190119045916 60 260 0.0 1.0 0.00 0.00 0.00 42 928.9
20190119045415 60 260 0.0 2.0 0.00 0.00 0.00 42 929.0
20190119044915 59 260 0.0 1.0 0.00 0.00 0.00 42 929.1
20190119044415 59 260 0.0 1.0 0.00 0.00 0.00 42 929.3
20190119043914 58 260 0.0 0.0 0.00 0.00 0.00 42 929.2
20190119043414 58 260 0.0 1.0 0.00 0.00 0.00 42 929.1
20190119042914 59 260 0.0 1.0 0.00 0.00 0.00 41 929.3
20190119042414 59 260 0.0 1.0 0.00 0.00 0.00 41 929.4
20190119041913 59 260 0.0 1.0 0.00 0.00 0.00 41 929.5
20190119041413 59 260 0.0 1.0 0.00 0.00 0.00 40 929.5
20190119040913 60 260 0.0 3.0 0.00 0.00 0.00 39 929.6
20190119040412 60 258 0.0 1.0 0.00 0.00 0.00 40 929.6
20190119035912 60 258 0.0 1.0 0.00 0.00 0.00 40 929.7
20190119035412 60 258 0.0 1.0 0.00 0.00 0.00 39 929.8
20190119034912 60 258 0.0 2.0 0.00 0.00 0.00 39 929.9
20190119034411 61 258 0.0 2.0 0.00 0.00 0.00 38 930.0
20190119033911 61 258 0.0 1.0 0.00 0.00 0.00 38 930.0
20190119033411 61 258 0.0 3.0 0.00 0.00 0.00 38 930.1
20190119032910 60 257 0.0 2.0 0.00 0.00 0.00 40 930.1
20190119032410 60 257 0.0 1.0 0.00 0.00 0.00 39 930.2
20190119031910 59 257 0.0 0.0 0.00 0.00 0.00 40 930.2
20190119031410 59 257 0.0 0.0 0.00 0.00 0.00 40 930.2
20190119030909 58 257 0.0 2.0 0.00 0.00 0.00 42 930.5
20190119030409 57 257 0.0 2.0 0.00 0.00 0.00 41 930.4
20190119025909 57 257 0.0 1.0 0.00 0.00 0.00 41 930.5
20190119025408 57 257 0.0 2.0 0.00 0.00 0.00 41 930.6
20190119024908 56 257 0.0 1.0 0.00 0.00 0.00 42 930.8
20190119024408 56 257 0.0 0.0 0.00 0.00 0.00 41 931.0
20190119023908 56 257 0.0 2.0 0.00 0.00 0.00 42 931.1
20190119023407 56 257 0.0 2.0 0.00 0.00 0.00 42 931.1
20190119022907 56 214 0.0 2.0 0.00 0.00 0.00 43 931.1
20190119022407 56 214 0.0 1.0 0.00 0.00 0.00 42 931.2
20190119021906 55 214 0.0 1.0 0.00 0.00 0.00 43 931.4
20190119021406 55 214 0.0 0.0 0.00 0.00 0.00 44 931.6
20190119020906 54 214 0.0 0.0 0.00 0.00 0.00 45 931.7
20190119020406 54 214 0.0 1.0 0.00 0.00 0.00 45 931.7
20190119015905 53 214 0.0 1.0 0.00 0.00 0.00 46 931.7
20190119015405 53 214 0.0 0.0 0.00 0.00 0.00 46 931.7
20190119014905 52 214 0.0 1.0 0.00 0.00 0.00 48 931.7
20190119014404 52 214 0.0 1.0 0.00 0.00 0.00 48 931.8
20190119013904 51 214 0.0 1.0 0.00 0.00 0.00 49 931.8
20190119013404 51 214 0.0 1.0 0.00 0.00 0.00 51 931.8
20190119012904 50 214 0.0 0.0 0.00 0.00 0.00 52 931.9
20190119012403 49 214 0.0 1.0 0.00 0.00 0.00 52 931.9
20190119011903 49 214 0.0 0.0 0.00 0.00 0.00 54 931.9
20190119011403 48 214 0.0 0.0 0.00 0.00 0.00 55 931.9
20190119010902 47 214 0.0 0.0 0.00 0.00 0.00 56 932.0
20190119010402 46 214 0.0 0.0 0.00 0.00 0.00 59 932.0
20190119005902 45 214 0.0 1.0 0.00 0.00 0.00 60 931.9
20190119005402 45 214 0.0 0.0 0.00 0.00 0.00 61 931.8
20190119004901 44 214 0.0 1.0 0.00 0.00 0.00 63 931.8
20190119004401 43 214 0.0 1.0 0.00 0.00 0.00 64 931.7
20190118230356 34 214 0.0 0.0 0.00 0.00 0.00 75 931.8
20190118225855 34 214 0.0 0.0 0.00 0.00 0.00 77 931.9
20190118225355 33 214 0.0 0.0 0.00 0.00 0.00 79 931.8
20190118224854 33 214 0.0 0.0 0.00 0.00 0.00 78 931.7
20190118224354 33 214 0.0 0.0 0.00 0.00 0.00 78 931.6
20190118224128 32 214 0.0 0.0 0.00 0.00 0.00 79 931.7
20190118223354 32 214 0.0 0.0 0.00 0.00 0.00 80 931.6
20190118222853 32 214 0.0 0.0 0.00 0.00 0.00 80 931.6
20190118222353 32 214 0.0 0.0 0.00 0.00 0.00 79 931.6
20190118221853 32 214 0.0 0.0 0.00 0.00 0.00 79 931.6
20190118221352 32 214 0.0 0.0 0.00 0.00 0.00 80 931.5
20190118220852 32 214 0.0 0.0 0.00 0.00 0.00 78 931.5
20190118220352 33 214 0.0 0.0 0.00 0.00 0.00 76 931.4
20190118215852 33 214 0.0 0.0 0.00 0.00 0.00 75 931.2
20190118215351 33 214 0.0 0.0 0.00 0.00 0.00 75 931.2
20190118214851 33 214 0.0 0.0 0.00 0.00 0.00 74 931.1
20190118214351 33 214 0.0 0.0 0.00 0.00 0.00 74 930.9
20190118213850 33 214 0.0 0.0 0.00 0.00 0.00 74 930.8
20190118213350 33 214 0.0 0.0 0.00 0.00 0.00 74 930.8
20190118212850 33 214 0.0 0.0 0.00 0.00 0.00 74 930.8
20190118212350 33 214 0.0 0.0 0.00 0.00 0.00 74 930.7
20190118211849 33 214 0.0 0.0 0.00 0.00 0.00 74 930.6
20190118211349 34 214 0.0 0.0 0.00 0.00 0.00 74 930.5
20190118210849 34 214 0.0 0.0 0.00 0.00 0.00 74 930.5
20190118210348 34 214 0.0 0.0 0.00 0.00 0.00 75 930.2
20190118205848 34 214 0.0 0.0 0.00 0.00 0.00 75 930.2
20190118205348 34 214 0.0 0.0 0.00 0.00 0.00 76 930.4
20190118204848 35 214 0.0 0.0 0.00 0.00 0.00 77 930.4
20190118204347 35 214 0.0 0.0 0.00 0.00 0.00 77 930.5
20190118203847 34 214 0.0 0.0 0.00 0.00 0.00 78 930.7
20190118203347 34 214 0.0 0.0 0.00 0.00 0.00 79 930.7
20190118202846 34 212 0.0 0.0 0.00 0.00 0.00 80 930.7
20190118202346 34 212 0.0 0.0 0.00 0.00 0.00 79 930.7
20190118201846 33 212 0.0 0.0 0.00 0.00 0.00 79 930.7
20190118201345 33 212 0.0 0.0 0.00 0.00 0.00 79 930.7
20190118200845 33 212 0.0 0.0 0.00 0.00 0.00 79 930.7
20190118200345 33 212 0.0 0.0 0.00 0.00 0.00 79 930.6
20190118195845 33 214 0.0 0.0 0.00 0.00 0.00 79 930.6
20190118195345 33 214 0.0 0.0 0.00 0.00 0.00 79 930.5
20190118194844 32 214 0.0 0.0 0.00 0.00 0.00 80 930.5
20190118194344 32 214 0.0 0.0 0.00 0.00 0.00 80 930.5
20190118193843 32 214 0.0 1.0 0.00 0.00 0.00 80 930.5
20190118193343 32 213 0.0 0.0 0.00 0.00 0.00 81 930.5
20190118192843 31 213 0.0 0.0 0.00 0.00 0.00 81 930.4
20190118192343 31 213 0.0 0.0 0.00 0.00 0.00 82 930.5
20190118191842 31 213 0.0 0.0 0.00 0.00 0.00 82 930.6
20190118191342 31 213 0.0 0.0 0.00 0.00 0.00 82 930.6
20190118190842 31 214 0.0 0.0 0.00 0.00 0.00 82 930.6
20190118190341 31 214 0.0 0.0 0.00 0.00 0.00 82 930.6
20190118185841 31 214 0.0 0.0 0.00 0.00 0.00 82 930.6
20190118185341 31 214 0.0 0.0 0.00 0.00 0.00 82 930.5
20190118184841 31 214 0.0 0.0 0.00 0.00 0.00 82 930.5
20190118184340 32 214 0.0 0.0 0.00 0.00 0.00 82 930.4
20190118183840 32 211 0.0 0.0 0.00 0.00 0.00 82 930.4
20190118183340 32 211 0.0 0.0 0.00 0.00 0.00 82 930.4
20190118182839 32 211 0.0 0.0 0.00 0.00 0.00 82 930.5
20190118182339 32 211 0.0 0.0 0.00 0.00 0.00 82 930.5
20190118181839 32 211 0.0 0.0 0.00 0.00 0.00 82 930.5
20190118181339 32 211 0.0 0.0 0.00 0.00 0.00 82 930.5
20190118180838 32 211 0.0 0.0 0.00 0.00 0.00 82 930.6
20190118180338 32 211 0.0 0.0 0.00 0.00 0.00 82 930.5
20190118175838 33 211 0.0 0.0 0.00 0.00 0.00 82 930.7
20190118175337 33 211 0.0 0.0 0.00 0.00 0.00 82 930.8
20190118174837 33 211 0.0 0.0 0.00 0.00 0.00 82 930.9
20190118174337 33 211 0.0 0.0 0.00 0.00 0.00 82 930.9
20190118173837 33 211 0.0 0.0 0.00 0.00 0.00 82 930.9
20190118173336 33 211 0.0 0.0 0.00 0.00 0.00 82 930.9
20190118172836 33 211 0.0 0.0 0.00 0.00 0.00 82 930.9
20190118172336 33 211 0.0 0.0 0.00 0.00 0.00 81 930.8
20190118171835 33 211 0.0 0.0 0.00 0.00 0.00 81 930.8
20190118171335 33 211 0.0 0.0 0.00 0.00 0.00 81 930.8
20190118170835 33 211 0.0 0.0 0.00 0.00 0.00 82 930.8
20190118170334 33 211 0.0 0.0 0.00 0.00 0.00 81 930.7
20190118165834 33 211 0.0 0.0 0.00 0.00 0.00 81 930.7
20190118165334 33 211 0.0 0.0 0.00 0.00 0.00 81 930.7
20190118164834 33 211 0.0 0.0 0.00 0.00 0.00 81 930.7
20190118164333 33 211 0.0 0.0 0.00 0.00 0.00 81 930.7
20190118163833 33 211 0.0 0.0 0.00 0.00 0.00 80 930.6
20190118163333 33 211 0.0 0.0 0.00 0.00 0.00 80 930.6
20190118162833 33 211 0.0 0.0 0.00 0.00 0.00 80 930.6
20190118162332 33 212 0.0 0.0 0.00 0.00 0.00 80 930.6
20190118161832 33 211 0.0 0.0 0.00 0.00 0.00 80 930.6
20190118161332 33 211 0.0 0.0 0.00 0.00 0.00 80 930.6
20190118160831 34 211 0.0 0.0 0.00 0.00 0.00 79 930.6
20190118160331 34 211 0.0 0.0 0.00 0.00 0.00 79 930.5
20190118155831 34 211 0.0 0.0 0.00 0.00 0.00 79 930.5
20190118155330 34 211 0.0 0.0 0.00 0.00 0.00 79 930.5
20190118154830 34 211 0.0 0.0 0.00 0.00 0.00 79 930.5
20190118154330 34 211 0.0 0.0 0.00 0.00 0.00 80 930.5
20190118153830 34 211 0.0 0.0 0.00 0.00 0.00 80 930.5
20190118153329 33 211 0.0 0.0 0.00 0.00 0.00 80 930.5
20190118152829 33 211 0.0 0.0 0.00 0.00 0.00 80 930.5
20190118152329 33 211 0.0 0.0 0.00 0.00 0.00 79 930.5
20190118151828 33 211 0.0 0.0 0.00 0.00 0.00 79 930.5
20190118151328 34 211 0.0 0.0 0.00 0.00 0.00 79 930.7
20190118150828 34 211 0.0 0.0 0.00 0.00 0.00 79 930.7
20190118150328 34 211 0.0 0.0 0.00 0.00 0.00 78 930.7
20190118145827 34 211 0.0 0.0 0.00 0.00 0.00 78 930.6
20190118145327 34 212 0.0 0.0 0.00 0.00 0.00 77 930.7
20190118144827 34 211 0.0 0.0 0.00 0.00 0.00 78 930.6
20190118144326 34 211 0.0 0.0 0.00 0.00 0.00 78 930.7
20190118143826 34 211 0.0 0.0 0.00 0.00 0.00 78 930.8
20190118143326 34 211 0.0 0.0 0.00 0.00 0.00 77 930.7
20190118142826 34 211 0.0 0.0 0.00 0.00 0.00 77 930.7
20190118142325 34 211 0.0 0.0 0.00 0.00 0.00 77 930.7
20190118141825 34 211 0.0 0.0 0.00 0.00 0.00 76 930.7
20190118141325 35 211 0.0 0.0 0.00 0.00 0.00 75 930.7
20190118140824 35 211 0.0 0.0 0.00 0.00 0.00 74 930.7
20190118140324 35 211 0.0 0.0 0.00 0.00 0.00 74 930.7
20190118135824 35 212 0.0 0.0 0.00 0.00 0.00 74 930.7
20190118135324 35 211 0.0 0.0 0.00 0.00 0.00 73 930.8
20190118134823 35 211 0.0 0.0 0.00 0.00 0.00 73 930.9
20190118134323 36 211 0.0 0.0 0.00 0.00 0.00 72 930.9
20190118133823 36 211 0.0 0.0 0.00 0.00 0.00 73 930.8
20190118133322 36 211 0.0 0.0 0.00 0.00 0.00 72 930.8
20190118132822 36 211 0.0 0.0 0.00 0.00 0.00 73 930.6
20190118132322 35 211 0.0 0.0 0.00 0.00 0.00 74 930.6
20190118131822 35 211 0.0 0.0 0.00 0.00 0.00 72 930.5
20190118131321 36 212 0.0 0.0 0.00 0.00 0.00 71 930.5
20190118130821 36 211 0.0 0.0 0.00 0.00 0.00 71 930.5
20190118130321 36 211 0.0 0.0 0.00 0.00 0.00 71 930.5
20190118125820 36 211 0.0 0.0 0.00 0.00 0.00 70 930.5
20190118125320 36 211 0.0 0.0 0.00 0.00 0.00 70 930.4
20190118124820 36 211 0.0 0.0 0.00 0.00 0.00 70 930.4
20190118124320 36 211 0.0 0.0 0.00 0.00 0.00 70 930.4
20190118123819 36 211 0.0 0.0 0.00 0.00 0.00 70 930.4
20190118123319 36 211 0.0 0.0 0.00 0.00 0.00 70 930.3
20190118122819 36 211 0.0 0.0 0.00 0.00 0.00 70 930.4
20190118122318 36 211 0.0 0.0 0.00 0.00 0.00 69 930.4
20190118121818 37 212 0.0 0.0 0.00 0.00 0.00 69 930.5
20190118121318 37 211 0.0 0.0 0.00 0.00 0.00 68 930.5
20190118120818 37 211 0.0 0.0 0.00 0.00 0.00 67 930.5
20190118120317 37 211 0.0 0.0 0.00 0.00 0.00 66 930.5
20190118115817 37 216 0.0 0.0 0.00 0.00 0.00 66 930.6
20190118115317 37 216 0.0 0.0 0.00 0.00 0.00 66 930.7
20190118114816 37 216 0.0 0.0 0.00 0.00 0.00 66 930.9
20190118114316 37 216 0.0 0.0 0.00 0.00 0.00 65 931.0
20190118113816 38 216 0.0 0.0 0.00 0.00 0.00 65 931.1
20190118113315 38 216 0.0 0.0 0.00 0.00 0.00 64 931.0
20190118112815 38 216 0.0 0.0 0.00 0.00 0.00 64 931.1
20190118112315 38 216 0.0 0.0 0.00 0.00 0.00 63 931.1
20190118111815 39 216 0.0 0.0 0.00 0.00 0.00 62 931.2
20190118111314 39 216 0.0 0.0 0.00 0.00 0.00 61 931.2
20190118110814 40 216 0.0 0.0 0.00 0.00 0.00 60 931.2
20190118110314 40 215 0.0 0.0 0.00 0.00 0.00 60 931.1
20190118105813 40 215 0.0 0.0 0.00 0.00 0.00 60 931.1
20190118105313 40 215 0.0 1.0 0.00 0.00 0.00 60 931.1
20190118104813 40 215 0.0 0.0 0.00 0.00 0.00 59 931.1
20190118104313 40 215 0.0 0.0 0.00 0.00 0.00 59 931.1
20190118103812 40 215 0.0 0.0 0.00 0.00 0.00 58 931.0